Location: Caltech
(34.1382°N, 118.1253°W)
Time: 02:17:56
(UTC-07:00)

SL-08 R/B - Visible Passes

Search period start: 23 April 2014 00:00
Search period end: 03 May 2014 00:00
Orbit: 676 x 744 km, 98.1° (Epoch: 22 April)

Date Brightness Start Highest point End Pass type
(mag) Time Alt. Az. Time Alt. Az. Time Alt. Az.
23 Apr 4.8 03:10:24 34° NNE 03:10:24 34° NNE 03:13:10 10° N visible
24 Apr 5.9 02:16:49 16° NE 02:16:49 16° NE 02:18:54 10° NNE visible
24 Apr 4.8 03:55:51 25° NW 03:55:51 25° NW 03:58:04 10° NNW visible
25 Apr 4.8 03:02:16 34° NNE 03:02:16 34° NNE 03:05:16 10° N visible
25 Apr 5.6 04:41:17 10° WNW 04:41:17 10° WNW 04:41:22 10° WNW visible
26 Apr 6.1 02:08:41 13° ENE 02:08:41 13° ENE 02:10:33 10° NE visible
26 Apr 4.5 03:47:42 31° NW 03:47:42 31° NW 03:50:20 10° NNW visible
27 Apr 4.9 02:54:07 33° NE 02:54:07 33° NE 02:57:19 10° N visible
27 Apr 5.3 04:33:09 13° WNW 04:33:09 13° WNW 04:34:03 10° NW visible
28 Apr 6.2 02:00:32 11° ENE 02:00:32 11° ENE 02:01:48 10° NE visible
28 Apr 4.2 03:39:34 38° NNW 03:39:34 38° NNW 03:42:34 10° NNW visible
29 Apr 5.0 02:45:59 30° NE 02:45:59 30° NE 02:49:19 10° N visible
29 Apr 5.1 04:25:01 17° WNW 04:25:01 17° WNW 04:26:36 10° NW visible
30 Apr 4.0 03:31:26 46° NNW 03:31:26 46° NNW 03:34:45 10° NNW visible
01 May 5.2 02:37:51 26° ENE 02:37:51 26° ENE 02:41:16 10° NNE visible
01 May 4.9 04:16:53 21° WNW 04:16:53 21° WNW 04:19:02 10° NW visible
02 May 3.9 03:23:18 53° N 03:23:18 53° N 03:26:54 10° N visible
